Newton, KS

9:27 PM CST on November 17, 2019 (GMT -0600)
Newton City County

Weather History for KEWK - October, 2019

Change the Weather History Date:

Sunday, October 20, 2019

  Actual Average Record
Temperature  
Mean Temperature 58 °F -  
Max Temperature 72 °F 63 °F 87 °F (2003)
Min Temperature 45 °F 43 °F 28 °F (2011)
Degree Days  
Heating Degree Days 6    
Growing Degree Days 8 (Base 50)    
Moisture  
Dew Point 46 °F    
Average Humidity 71    
Maximum Humidity 100    
Minimum Humidity 32    
Precipitation  
Precipitation 0.00 in - - ()
Sea Level Pressure  
Sea Level Pressure 29.68 in    
Wind  
Wind Speed 12 mph (SE)    
Max Wind Speed 23 mph    
Max Gust Speed 30 mph    
Visibility 10 miles    
Events Rain , Thunderstorm    
Averages and records for this station are not official NWS values.
T = Trace of Precipitation, MM = Missing Value Source: NWS Daily Summary

Daily Weather History Graph

Daily Weather History Graph

Search for Another Location

Airport or City:

Astronomy

Oct. 20, 2019 Rise Set
Actual Time 7:42 AM CDT 6:44 PM CDT
Civil Twilight 7:15 AM CDT 7:11 PM CDT
Nautical Twilight 6:45 AM CDT 7:42 PM CDT
Astronomical Twilight 6:14 AM CDT 8:12 PM CDT
Moon 11:58 PM CDT (10/20) 2:07 PM CDT (10/20)
Length of Visible Light 11h 55m
Length of Day
11h 02m
Waning Gibbous, 59% of the Moon is Illuminated
Oct 20
Waning Gibbous
Oct 21
Last Quarter
Oct 27
New
Nov 4
First Quarter
Nov 12
Full

Hourly Weather History & Observations

Time (CDT) Temp. Windchill Dew Point Humidity Pressure Visibility Wind Dir Wind Speed Gust Speed Precip Events Conditions
12:56 AM 46.9 °F - 37.9 °F 71% 29.82 in 10.0 mi SE 8.1 mph - N/A   Clear
1:56 AM 48.0 °F - 39.0 °F 71% 29.81 in 10.0 mi SSE 8.1 mph - N/A   Clear
3:56 AM 46.0 °F 41.0 °F 42.1 °F 86% 29.77 in 10.0 mi SSE 10.4 mph - N/A   Clear
4:56 AM 46.0 °F 41.0 °F 44.1 °F 93% 29.77 in 10.0 mi SE 10.4 mph - N/A   Clear
5:56 AM 45.0 °F 39.7 °F 44.1 °F 97% 29.77 in 10.0 mi SE 10.4 mph - N/A   Clear
6:56 AM 46.0 °F 41.4 °F 45.0 °F 96% 29.77 in 10.0 mi SSE 9.2 mph - N/A   Clear
7:56 AM 46.9 °F - 46.0 °F 97% 29.75 in 10.0 mi SE 10.4 mph - N/A   Clear
8:14 AM 48.2 °F - 46.4 °F 93% 29.76 in 8.0 mi SE 12.7 mph - N/A   Partly Cloudy
8:32 AM 48.2 °F - 48.2 °F 100% 29.76 in 6.0 mi SE 13.8 mph - N/A   Mostly Cloudy
8:56 AM 51.1 °F - 50.0 °F 96% 29.75 in 9.0 mi SE 17.3 mph - N/A   Scattered Clouds
9:27 AM 55.4 °F - 51.8 °F 88% 29.77 in 10.0 mi SSE 19.6 mph - N/A   Mostly Cloudy
9:49 AM 55.4 °F - 51.8 °F 88% 29.76 in 10.0 mi SE 23.0 mph 26.5 mph N/A   Mostly Cloudy
9:56 AM 55.9 °F - 52.0 °F 87% 29.74 in 10.0 mi SSE 21.9 mph 25.3 mph N/A   Scattered Clouds
10:56 AM 60.1 °F - 52.0 °F 75% 29.73 in 10.0 mi SSE 23.0 mph 27.6 mph N/A   Clear
11:56 AM 64.0 °F - 51.1 °F 63% 29.70 in 10.0 mi SSE 21.9 mph 29.9 mph N/A   Clear
12:56 PM 66.0 °F - 52.0 °F 60% 29.66 in 10.0 mi SSE 21.9 mph 29.9 mph N/A   Clear
1:56 PM 69.1 °F - 50.0 °F 51% 29.60 in 10.0 mi SSE 21.9 mph 27.6 mph N/A   Clear
2:56 PM 72.0 °F - 46.9 °F 41% 29.56 in 10.0 mi SSE 20.7 mph 28.8 mph N/A   Clear
3:56 PM 71.1 °F - 48.0 °F 44% 29.57 in 10.0 mi South 15.0 mph - N/A   Clear
4:56 PM 70.0 °F - 48.9 °F 47% 29.58 in 10.0 mi SSW 13.8 mph - N/A   Overcast
5:56 PM 66.9 °F - 50.0 °F 54% 29.58 in 10.0 mi ESE 3.5 mph - 0.00 in Rain Light Rain
6:07 PM 66.2 °F - 51.8 °F 60% 29.60 in 10.0 mi East 5.8 mph - 0.00 in Rain , Thunderstorm Light Thunderstorms and Rain
6:56 PM 63.0 °F - 53.1 °F 70% 29.57 in 10.0 mi ESE 10.4 mph - 0.00 in   Mostly Cloudy
7:34 PM 62.6 °F - 46.4 °F 55% 29.63 in 10.0 mi NW 13.8 mph 20.7 mph N/A   Mostly Cloudy
7:56 PM 62.1 °F - 44.1 °F 52% 29.62 in 10.0 mi NNW 17.3 mph 23.0 mph N/A   Clear
8:56 PM 60.1 °F - 30.0 °F 32% 29.61 in 10.0 mi NNW 15.0 mph 23.0 mph N/A   Clear
9:25 PM 59.0 °F - 32.0 °F 36% 29.68 in 10.0 mi NW 16.1 mph 27.6 mph 0.00 in Rain , Thunderstorm Light Thunderstorms and Rain
9:53 PM 48.2 °F - 42.8 °F 82% 29.66 in 10.0 mi North 6.9 mph - 0.00 in Rain Light Rain
9:56 PM 48.9 °F - 42.1 °F 77% 29.65 in 10.0 mi NNE 5.8 mph - 0.00 in Rain Light Rain
10:56 PM 46.9 °F - 41.0 °F 80% 29.57 in 10.0 mi North 6.9 mph - N/A   Partly Cloudy
11:56 PM 52.0 °F - 37.0 °F 57% 29.63 in 10.0 mi NW 6.9 mph - N/A   Overcast